Havre, MT

11:14 PM MST on February 06, 2016 (GMT -0700)
Havre City-County

Weather History for KHVR - August, 2013

Change the Weather History Date:

Saturday, August 31, 2013

  Actual Average Record
Temperature  
Mean Temperature 63 °F 63 °F  
Max Temperature 78 °F 78 °F 102 °F (1991)
Min Temperature 48 °F 47 °F 35 °F (1952)
Degree Days  
Heating Degree Days 2 4  
Month to date heating degree days 10 54  
Since 1 June heating degree days 131 216  
Since 1 July heating degree days 18 83  
Cooling Degree Days 0 2  
Month to date cooling degree days 179 146  
Year to date cooling degree days 375 367  
Since 1 June cooling degree days 368 356  
Growing Degree Days 13 (Base 50)    
Moisture  
Dew Point 46 °F    
Average Humidity 59    
Maximum Humidity 86    
Minimum Humidity 31    
Precipitation  
Precipitation 0.00 in 0.03 in 1.62 in (1887)
Month to date precipitation 1.14 1.11  
Year to date precipitation 15.10 8.67  
Snow  
Snow 0.00 in 0.00 in 0.00 in (1999)
Month to date snowfall 0.0 0.0  
Since 1 June snowfall 0.0 0.0  
Since 1 July snowfall 0.0 0.0  
Snow Depth 0.00 in    
Sea Level Pressure  
Sea Level Pressure 30.07 in    
Wind  
Wind Speed 9 mph (WNW)    
Max Wind Speed 21 mph    
Max Gust Speed 30 mph    
Visibility 10 miles    
Events      
T = Trace of Precipitation, MM = Missing Value Source: NWS Daily Summary

Daily Weather History Graph

Daily Weather History Graph

Search for Another Location

Airport or City:

Trip Planner

Search our weather history database for the weather conditions in past years. The results will help you decide how hot, cold, wet, or windy it might be!

Date:

Astronomy

Aug. 31, 2013 Rise Set
Actual Time 6:35 AM MDT 8:02 PM MDT
Civil Twilight 6:02 AM MDT 8:34 PM MDT
Nautical Twilight 5:22 AM MDT 9:14 PM MDT
Astronomical Twilight 4:39 AM MDT 9:56 PM MDT
Moon 1:53 AM MDT (8/31) 5:15 PM MDT (8/31)
Length of Visible Light 14h 32m
Length of Day
13h 26m
Waning Crescent, 20% of the Moon is Illuminated
Aug 31
Waning Crescent
Sep 5
New
Sep 12
First Quarter
Sep 19
Full
Sep 26
Last Quarter

Hourly Weather History & Observations

Time (MDT) Temp. Dew Point Humidity Pressure Visibility Wind Dir Wind Speed Gust Speed Precip Events Conditions
12:53 AM 62.1 °F 46.0 °F 56% 29.99 in 10.0 mi WNW 5.8 mph - N/A   Clear
1:53 AM 55.9 °F 46.9 °F 72% 30.01 in 10.0 mi West 5.8 mph - N/A   Clear
2:53 AM 54.0 °F 46.9 °F 77% 30.03 in 10.0 mi WSW 8.1 mph - N/A   Clear
3:53 AM 52.0 °F 46.0 °F 80% 30.04 in 10.0 mi SW 9.2 mph - N/A   Clear
4:53 AM 50.0 °F 46.0 °F 86% 30.04 in 10.0 mi Calm Calm - N/A   Clear
5:53 AM 48.9 °F 45.0 °F 86% 30.06 in 10.0 mi WSW 6.9 mph - N/A   Clear
6:53 AM 50.0 °F 46.9 °F 89% 30.08 in 10.0 mi SW 8.1 mph - N/A   Clear
7:53 AM 54.0 °F 48.0 °F 80% 30.09 in 10.0 mi WSW 6.9 mph - N/A   Clear
8:53 AM 61.0 °F 48.0 °F 62% 30.11 in 10.0 mi WSW 8.1 mph - N/A   Clear
9:53 AM 64.9 °F 46.9 °F 52% 30.10 in 10.0 mi West 11.5 mph - N/A   Clear
10:53 AM 70.0 °F 46.0 °F 42% 30.10 in 10.0 mi West 11.5 mph - N/A   Clear
11:53 AM 73.0 °F 46.0 °F 38% 30.09 in 10.0 mi WNW 15.0 mph - N/A   Clear
12:53 PM 73.9 °F 43.0 °F 33% 30.08 in 10.0 mi NW 17.3 mph 26.5 mph N/A   Clear
1:53 PM 75.9 °F 44.1 °F 32% 30.09 in 10.0 mi WNW 17.3 mph 25.3 mph N/A   Clear
2:53 PM 77.0 °F 44.1 °F 31% 30.08 in 10.0 mi WNW 17.3 mph 24.2 mph N/A   Clear
3:53 PM 75.9 °F 44.1 °F 32% 30.08 in 10.0 mi NW 10.4 mph 23.0 mph N/A   Clear
4:53 PM 75.9 °F 44.1 °F 32% 30.07 in 10.0 mi NNW 11.5 mph - N/A   Clear
5:53 PM 75.9 °F 46.0 °F 35% 30.06 in 10.0 mi NNW 11.5 mph 18.4 mph N/A   Clear
6:53 PM 73.9 °F 46.9 °F 38% 30.07 in 10.0 mi NNW 6.9 mph - N/A   Clear
7:53 PM 70.0 °F 46.9 °F 44% 30.07 in 10.0 mi North 3.5 mph - N/A   Clear
8:53 PM 68.0 °F 46.9 °F 47% 30.06 in 10.0 mi NE 3.5 mph - N/A   Clear
9:53 PM 59.0 °F 50.0 °F 72% 30.08 in 10.0 mi ESE 4.6 mph - N/A   Clear
10:53 PM 59.0 °F 48.0 °F 67% 30.07 in 10.0 mi East 4.6 mph - N/A   Clear
11:53 PM 55.9 °F 46.9 °F 72% 30.07 in 10.0 mi Calm Calm - N/A   Clear